Weather History for Scappoose, OR

Change the Weather History Date:

Saturday, January 5, 2013

  Actual Average Record
Temperature  
Mean Temperature 36 °F -  
Max Temperature 38 °F - 57 °F (2001)
Min Temperature 34 °F - 19 °F (2005)
Degree Days  
Heating Degree Days 29    
Month to date heating degree days 157  
Since 1 July heating degree days 1997  
Cooling Degree Days 0    
Month to date cooling degree days 0  
Year to date cooling degree days 0  
Moisture  
Dew Point 28 °F    
Average Humidity 80    
Maximum Humidity 89    
Minimum Humidity 70    
Precipitation  
Precipitation T in - 0.82 in (2002)
Month to date precipitation 0.03  
Year to date precipitation 0.03  
Sea Level Pressure  
Sea Level Pressure 30.21 in    
Wind  
Wind Speed 4 mph (South)    
Max Wind Speed 9 mph    
Max Gust Speed 13 mph    
Visibility 10 miles    
Events Rain    
T = Trace of Precipitation, MM = Missing Value Source: NWS Daily Summary

Daily Weather History Graph

Daily Weather History Graph

Search for Another Location

Airport:

Trip Planner

Search our weather history database for the weather conditions in past years. The results will help you decide how hot, cold, wet, or windy it might be!

Date:

Astronomy

Jan. 05, 2013 Rise Set
Actual Time 7:52 AM PST 4:42 PM PST
Civil Twilight 7:18 AM PST 5:16 PM PST
Nautical Twilight 6:40 AM PST 5:53 PM PST
Astronomical Twilight 6:04 AM PST 6:29 PM PST
Moon 12:54 AM PST (1/5) 11:44 AM PST (1/5)
Length of Visible Light 9h 57m
Length of Day
8h 49m
Last Quarter, 43% of the Moon is Illuminated
Jan 5
Last Quarter
Jan 11
New
Jan 18
First Quarter
Jan 26
Full
Feb 3
Last Quarter

Hourly Weather History & Observations

Time (PST) Temp. Windchill Dew Point Humidity Pressure Visibility Wind Dir Wind Speed Gust Speed Precip Events Conditions
12:53 AM 36.0 °F 32.1 °F 27.0 °F 70% 30.21 in 10.0 mi South 4.6 mph - N/A   Overcast
1:53 AM 36.0 °F 30.3 °F 27.0 °F 70% 30.21 in 10.0 mi SSW 6.9 mph - N/A   Partly Cloudy
2:53 AM 36.0 °F 32.1 °F 26.1 °F 67% 30.22 in 10.0 mi South 4.6 mph - N/A   Mostly Cloudy
3:53 AM 36.0 °F 33.3 °F 26.1 °F 67% 30.21 in 10.0 mi South 3.5 mph - N/A   Overcast
4:53 AM 36.0 °F 32.1 °F 26.1 °F 67% 30.20 in 10.0 mi South 4.6 mph - N/A   Partly Cloudy
5:53 AM 36.0 °F 31.1 °F 26.1 °F 67% 30.21 in 10.0 mi SSW 5.8 mph - N/A   Scattered Clouds
6:53 AM 36.0 °F 30.3 °F 26.1 °F 67% 30.22 in 10.0 mi South 6.9 mph - N/A   Overcast
7:53 AM 35.1 °F 31.0 °F 26.1 °F 70% 30.22 in 10.0 mi South 4.6 mph - N/A   Mostly Cloudy
8:53 AM 36.0 °F 33.3 °F 27.0 °F 70% 30.23 in 10.0 mi South 3.5 mph - N/A   Overcast
9:53 AM 36.0 °F 32.1 °F 28.0 °F 73% 30.24 in 10.0 mi South 4.6 mph - 0.00 in   Overcast
10:53 AM 37.0 °F 32.4 °F 28.0 °F 70% 30.24 in 10.0 mi SSE 5.8 mph - N/A   Mostly Cloudy
11:53 AM 37.9 °F 34.4 °F 28.9 °F 70% 30.22 in 10.0 mi South 4.6 mph - N/A   Mostly Cloudy
12:53 PM 37.0 °F 33.3 °F 28.9 °F 73% 30.19 in 10.0 mi Variable 4.6 mph - N/A   Mostly Cloudy
1:53 PM 37.9 °F 34.4 °F 30.0 °F 73% 30.19 in 10.0 mi South 4.6 mph - N/A   Partly Cloudy
2:53 PM 37.9 °F 34.4 °F 30.0 °F 73% 30.19 in 10.0 mi SSE 4.6 mph - N/A   Mostly Cloudy
3:53 PM 37.0 °F 33.3 °F 28.9 °F 73% 30.19 in 10.0 mi SSE 4.6 mph - N/A   Overcast
4:53 PM 36.0 °F 32.1 °F 28.0 °F 73% 30.19 in 10.0 mi SSW 4.6 mph - N/A   Overcast
5:53 PM 36.0 °F - 28.0 °F 73% 30.20 in 10.0 mi Calm Calm - N/A   Overcast
6:53 PM 36.0 °F - 28.0 °F 73% 30.19 in 10.0 mi Calm Calm - N/A   Mostly Cloudy
7:22 PM 35.6 °F - 28.4 °F 75% 30.20 in 10.0 mi Calm Calm - N/A   Mostly Cloudy
7:53 PM 35.1 °F 31.0 °F 28.9 °F 78% 30.19 in 10.0 mi SE 4.6 mph - N/A   Overcast
8:53 PM 35.1 °F 30.1 °F 30.0 °F 82% 30.20 in 10.0 mi South 5.8 mph - N/A   Overcast
9:03 PM 35.6 °F 32.8 °F 28.4 °F 75% 30.20 in 10.0 mi South 3.5 mph - N/A   Overcast
9:53 PM 36.0 °F 33.3 °F 30.0 °F 79% 30.21 in 10.0 mi SSE 3.5 mph - N/A   Overcast
10:21 PM 35.6 °F 31.7 °F 30.2 °F 81% 30.21 in 7.0 mi South 4.6 mph - 0.00 in Rain Light Rain
10:45 PM 35.6 °F 30.7 °F 30.2 °F 81% 30.21 in 7.0 mi SSE 5.8 mph - 0.00 in Rain Light Rain
10:53 PM 34.0 °F 31.0 °F 30.9 °F 89% 30.21 in 8.0 mi SSE 3.5 mph - 0.00 in   Overcast
11:53 PM 35.1 °F - 32.0 °F 89% 30.21 in 10.0 mi Calm Calm - N/A   Overcast